Brookings, OR

11:53 AM PDT on May 28, 2017 (GMT -0700)
Brookings State

Weather History for KBOK - February, 2013

Change the Weather History Date:

Thursday, February 28, 2013

  Actual Average Record
Temperature  
Mean Temperature 48 °F -  
Max Temperature 50 °F 56 °F 68 °F (1938)
Min Temperature 47 °F 42 °F 30 °F (1939)
Degree Days  
Heating Degree Days 16    
Moisture  
Dew Point 49 °F    
Average Humidity 100    
Maximum Humidity 100    
Minimum Humidity 100    
Precipitation  
Precipitation 2.01 in - - ()
Sea Level Pressure  
Sea Level Pressure 30.47 in    
Wind  
Wind Speed 8 mph (SSE)    
Max Wind Speed 12 mph    
Max Gust Speed -    
Averages and records for this station are not official NWS values.
T = Trace of Precipitation, MM = Missing Value Source: NWS Daily Summary

Daily Weather History Graph

Daily Weather History Graph

Search for Another Location

Airport or City:

Trip Planner

Search our weather history database for the weather conditions in past years. The results will help you decide how hot, cold, wet, or windy it might be!

Date:

Astronomy

Feb. 28, 2013 Rise Set
Actual Time 6:53 AM PST 6:06 PM PST
Civil Twilight 6:25 AM PST 6:34 PM PST
Nautical Twilight 5:52 AM PST 7:06 PM PST
Astronomical Twilight 5:20 AM PST 7:39 PM PST
Moon 9:44 PM PST 8:02 AM PST
Length of Visible Light 12h 09m
Length of Day
11h 13m
Waning Gibbous, 90% of the Moon is Illuminated
Feb 28
Waning Gibbous
Mar 4
Last Quarter
Mar 11
New
Mar 19
First Quarter
Mar 27
Full

Hourly Weather History & Observations

Time (PST) Temp. Dew Point Humidity Pressure Visibility Wind Dir Wind Speed Gust Speed Precip Events Conditions
12:24 AM 48.2 °F 48.2 °F 100% 30.36 in 0.2 mi SSE 10.4 mph - 0.02 in Fog , Rain Light Rain
12:44 AM 48.2 °F 48.2 °F 100% 30.36 in 0.5 mi SSE 9.2 mph - 0.06 in Fog , Rain Rain
12:56 AM 47.8 °F 47.8 °F 100% 30.37 in 0.5 mi South 10.4 mph - 0.09 in Fog , Rain Light Rain
1:04 AM 48.2 °F 48.2 °F 100% 30.36 in 0.2 mi SSE 9.2 mph - 0.01 in Fog , Rain Light Rain
1:29 AM 48.2 °F 48.2 °F 100% 30.36 in 0.5 mi SSE 10.4 mph - 0.06 in Fog , Rain Light Rain
1:56 AM 48.9 °F 48.9 °F 100% 30.38 in 0.2 mi South 8.1 mph - 0.13 in Fog , Rain Rain
2:06 AM 48.2 °F 48.2 °F 100% 30.37 in 0.5 mi SSE 8.1 mph - 0.03 in Fog , Rain Rain
2:56 AM 48.9 °F 48.9 °F 100% 30.37 in 0.5 mi SSE 10.4 mph - 0.17 in Fog , Rain Rain
3:06 AM 48.2 °F 48.2 °F 100% 30.36 in 0.2 mi SSE 8.1 mph - 0.02 in Fog , Rain Rain
3:56 AM 48.9 °F 48.9 °F 100% 30.38 in 0.2 mi SSE 10.4 mph - 0.18 in Fog , Rain Rain
4:56 AM 47.8 °F 47.8 °F 100% 30.38 in 0.2 mi SSE 10.4 mph - 0.17 in Fog , Rain Rain
5:25 AM 48.2 °F 48.2 °F 100% 30.38 in 0.5 mi SSE 9.2 mph - 0.10 in Fog , Rain Rain
5:56 AM 47.8 °F 47.8 °F 100% 30.40 in 0.2 mi SSE 10.4 mph - 0.19 in Fog , Rain Light Rain
6:56 AM 48.9 °F 48.9 °F 100% 30.41 in 0.2 mi SSE 11.5 mph - 0.13 in Fog , Rain Light Rain
7:29 AM 48.2 °F 48.2 °F 100% 30.41 in 0.2 mi SSE 9.2 mph - 0.08 in Fog , Rain Rain
7:56 AM 48.9 °F 48.9 °F 100% 30.42 in 0.2 mi SE 10.4 mph - 0.12 in Fog , Rain Light Rain
8:12 AM 48.2 °F 48.2 °F 100% 30.41 in 0.5 mi SE 6.9 mph - 0.03 in Fog , Rain Light Rain
8:44 AM 48.2 °F 48.2 °F 100% 30.43 in 0.2 mi Variable 6.9 mph - 0.06 in Fog , Rain Light Rain
8:56 AM 48.9 °F 48.9 °F 100% 30.45 in 0.2 mi Variable 5.8 mph - 0.08 in Fog , Rain Light Rain
9:12 AM 48.2 °F 48.2 °F 100% 30.45 in 0.5 mi SSE 9.2 mph - 0.03 in Fog , Rain Light Rain
9:30 AM 48.2 °F 48.2 °F 100% 30.45 in 0.2 mi South 9.2 mph - 0.06 in Fog , Rain Light Rain
9:56 AM 48.9 °F 48.9 °F 100% 30.46 in 0.2 mi SSE 10.4 mph - 0.09 in Fog , Rain Light Rain
10:56 AM 48.9 °F 48.9 °F 100% 30.48 in 0.2 mi SSE 10.4 mph - 0.14 in Fog , Rain Light Rain
11:12 AM 48.2 °F 48.2 °F 100% 30.47 in 0.2 mi SSE 9.2 mph - 0.03 in Fog , Rain Light Rain
11:23 AM 48.2 °F 48.2 °F 100% 30.48 in 0.2 mi SSE 8.1 mph - 0.05 in Fog , Rain Light Rain
12:46 PM 48.2 °F 48.2 °F 100% 30.49 in 0.2 mi SSE 8.1 mph - 0.13 in Fog , Rain Light Rain
12:56 PM 48.9 °F 48.9 °F 100% 30.50 in 0.2 mi SE 5.8 mph - 0.14 in Fog , Rain Light Rain
1:16 PM 48.2 °F 48.2 °F 100% 30.49 in 0.2 mi SSE 8.1 mph - 0.04 in Fog , Rain Rain
1:23 PM 48.2 °F 48.2 °F 100% 30.49 in 0.2 mi SE 8.1 mph - 0.05 in Fog , Rain Light Rain
1:56 PM 48.9 °F 48.9 °F 100% 30.49 in 0.5 mi SSE 6.9 mph - 0.12 in Fog , Rain Light Rain
2:56 PM 48.9 °F 48.9 °F 100% 30.50 in 0.5 mi SE 6.9 mph - 0.08 in Fog , Rain Light Rain
3:40 PM 48.2 °F 48.2 °F 100% 30.49 in 0.8 mi SE 5.8 mph - 0.06 in Rain Light Rain
3:56 PM 48.9 °F 48.9 °F 100% 30.51 in 0.8 mi SE 4.6 mph - 0.07 in Rain Light Rain
4:18 PM 48.2 °F 48.2 °F 100% 30.49 in 0.5 mi SE 4.6 mph - 0.01 in Fog , Rain Light Rain
4:56 PM 48.9 °F 48.9 °F 100% 30.51 in 0.5 mi SSE 5.8 mph - 0.04 in Fog , Rain Light Rain
5:03 PM 48.2 °F 48.2 °F 100% 30.49 in 0.2 mi SSE 4.6 mph - 0.00 in Fog , Rain Light Rain
5:39 PM 50.0 °F 50.0 °F 100% 30.49 in 0.2 mi Variable 4.6 mph - 0.02 in Fog , Rain Light Rain
5:56 PM 48.9 °F 48.9 °F 100% 30.51 in 0.2 mi SE 4.6 mph - 0.03 in Fog , Rain Light Rain
6:15 PM 50.0 °F 50.0 °F 100% 30.50 in 0.5 mi SSE 4.6 mph - 0.01 in Fog , Rain Light Rain
6:56 PM 48.9 °F 48.9 °F 100% 30.51 in 0.5 mi ESE 3.5 mph - 0.02 in Fog , Rain Light Rain
7:06 PM 48.2 °F 48.2 °F 100% 30.50 in 0.8 mi SE 3.5 mph - 0.00 in   Overcast
7:24 PM 48.2 °F 48.2 °F 100% 30.51 in 1.0 mi SSE 4.6 mph - 0.00 in   Overcast
7:29 PM 50.0 °F 50.0 °F 100% 30.51 in 0.5 mi SSE 5.8 mph - 0.00 in Fog Fog
7:39 PM 50.0 °F 50.0 °F 100% 30.51 in 0.2 mi SSE 4.6 mph - 0.01 in Fog Fog
7:56 PM 50.0 °F 50.0 °F 100% 30.53 in 0.2 mi SE 3.5 mph - 0.01 in Fog Fog
8:05 PM 50.0 °F 50.0 °F 100% 30.52 in 0.5 mi SE 4.6 mph - N/A Fog Fog
8:31 PM 48.2 °F 48.2 °F 100% 30.52 in 0.2 mi Variable 3.5 mph - 0.01 in Fog Fog
8:56 PM 50.0 °F 50.0 °F 100% 30.53 in 0.2 mi Variable 4.6 mph - 0.01 in Fog Fog
9:07 PM 50.0 °F 50.0 °F 100% 30.53 in 0.5 mi SE 3.5 mph - N/A Fog Fog
9:28 PM 50.0 °F 50.0 °F 100% 30.53 in 0.8 mi SE 3.5 mph - N/A   Overcast
9:56 PM 50.0 °F 50.0 °F 100% 30.54 in 1.0 mi Calm Calm - N/A   Overcast
10:10 PM 50.0 °F 50.0 °F 100% 30.53 in 1.2 mi Calm Calm - N/A   Overcast
10:14 PM 50.0 °F 50.0 °F 100% 30.54 in 2.0 mi Calm Calm - N/A   Overcast
10:24 PM 50.0 °F 50.0 °F 100% 30.54 in 4.0 mi Calm Calm - N/A   Overcast
11:08 PM 50.0 °F 50.0 °F 100% 30.54 in 1.5 mi Calm Calm - N/A   Overcast
11:16 PM 50.0 °F 50.0 °F 100% 30.53 in 1.0 mi East 3.5 mph - N/A   Overcast
11:34 PM 50.0 °F 50.0 °F 100% 30.53 in 1.2 mi SE 3.5 mph - N/A   Overcast
11:49 PM 50.0 °F 50.0 °F 100% 30.53 in 1.5 mi Calm Calm - N/A   Overcast